"Zeitpunkt";"timestamp";"D0";"V0";"V0_max";"T0";"F0";"G0";"S0";"R0";"M0";"T1";"L0";"L0_nn"
"26.03.2024, 00:00";"1711414801";"77";"2";"7";"66";"59";"10";"0";"0";"0";"55";"0";"9818"
"26.03.2024, 00:10";"1711415401";"77";"2";"8";"66";"59";"10";"0";"0";"0";"55";"0";"9818"
"26.03.2024, 00:20";"1711416001";"71";"2";"7";"64";"60";"10";"0";"0";"0";"54";"0";"9818"
"26.03.2024, 00:30";"1711416601";"66";"2";"6";"64";"60";"10";"0";"0";"0";"55";"0";"9818"
"26.03.2024, 00:40";"1711417201";"61";"2";"7";"63";"60";"10";"0";"0";"0";"52";"0";"9818"
"26.03.2024, 00:50";"1711417801";"74";"1";"5";"62";"61";"10";"0";"0";"0";"51";"0";"9818"
"26.03.2024, 01:00";"1711418401";"55";"3";"6";"62";"62";"10";"0";"0";"0";"52";"0";"9809"
"26.03.2024, 01:10";"1711419001";"55";"3";"6";"61";"62";"10";"0";"0";"0";"50";"0";"9809"
"26.03.2024, 01:20";"1711419601";"59";"3";"6";"62";"62";"10";"0";"0";"0";"52";"0";"9809"
"26.03.2024, 01:30";"1711420201";"63";"2";"6";"62";"61";"10";"0";"0";"0";"52";"0";"9809"
"26.03.2024, 01:40";"1711420801";"61";"2";"6";"62";"61";"10";"0";"0";"0";"52";"0";"9809"
"26.03.2024, 01:50";"1711421401";"60";"3";"6";"62";"61";"10";"0";"0";"0";"54";"0";"9809"
"26.03.2024, 02:00";"1711422001";"54";"2";"5";"62";"62";"10";"0";"0";"0";"52";"0";"9802"
"26.03.2024, 02:10";"1711422601";"60";"3";"7";"61";"63";"10";"0";"0";"0";"53";"0";"9802"
"26.03.2024, 02:20";"1711423201";"62";"3";"7";"61";"62";"10";"0";"0";"0";"53";"0";"9802"
"26.03.2024, 02:30";"1711423801";"62";"3";"7";"61";"63";"10";"0";"0";"0";"52";"0";"9802"
"26.03.2024, 02:40";"1711424401";"60";"3";"5";"60";"63";"10";"0";"0";"0";"51";"0";"9802"
"26.03.2024, 02:50";"1711425001";"59";"3";"5";"60";"64";"10";"0";"0";"0";"51";"0";"9802"
"26.03.2024, 03:00";"1711425601";"58";"3";"6";"59";"64";"10";"0";"0";"0";"50";"0";"9792"
"26.03.2024, 03:10";"1711426201";"51";"3";"6";"59";"65";"11";"0";"0";"0";"47";"0";"9792"
"26.03.2024, 03:20";"1711426802";"48";"2";"4";"58";"65";"10";"0";"0";"0";"46";"0";"9792"
"26.03.2024, 03:30";"1711427401";"47";"3";"5";"58";"65";"11";"0";"0";"0";"46";"0";"9792"
"26.03.2024, 03:40";"1711428001";"46";"3";"5";"57";"66";"11";"0";"0";"0";"45";"0";"9792"
"26.03.2024, 03:50";"1711428601";"43";"2";"5";"56";"66";"11";"0";"0";"0";"40";"0";"9792"
"26.03.2024, 04:00";"1711429201";"31";"2";"4";"54";"67";"11";"0";"0";"0";"42";"0";"9785"
"26.03.2024, 04:10";"1711429801";"27";"2";"5";"54";"67";"11";"0";"0";"0";"45";"0";"9785"
"26.03.2024, 04:20";"1711430401";"48";"3";"6";"53";"68";"11";"0";"0";"0";"41";"0";"9785"
"26.03.2024, 04:30";"1711431001";"60";"2";"5";"52";"68";"11";"0";"0";"0";"43";"0";"9785"
"26.03.2024, 04:40";"1711431601";"57";"2";"5";"53";"68";"13";"0";"0";"0";"44";"0";"9785"
"26.03.2024, 04:50";"1711432201";"54";"1";"4";"53";"69";"41";"0";"0";"0";"44";"0";"9785"
"26.03.2024, 05:00";"1711432801";"48";"1";"5";"53";"69";"40";"0";"0";"0";"45";"0";"9781"
"26.03.2024, 05:10";"1711433401";"54";"2";"5";"53";"69";"68";"0";"0";"0";"48";"0";"9781"
"26.03.2024, 05:20";"1711434001";"51";"2";"4";"54";"69";"139";"0";"0";"0";"51";"0";"9781"
"26.03.2024, 05:30";"1711434601";"32";"1";"3";"56";"69";"350";"2";"0";"0";"54";"0";"9781"
"26.03.2024, 05:40";"1711435201";"29";"1";"3";"58";"68";"760";"10";"0";"0";"58";"0";"9781"
"26.03.2024, 05:50";"1711435801";"37";"1";"3";"61";"67";"549";"6";"0";"0";"63";"0";"9781"
"26.03.2024, 06:00";"1711436401";"19";"0";"2";"63";"67";"192";"0";"0";"0";"67";"0";"9781"
"26.03.2024, 06:10";"1711437001";"142";"0";"5";"67";"67";"211";"0";"0";"0";"74";"0";"9781"
"26.03.2024, 06:20";"1711437601";"3";"0";"2";"73";"59";"280";"1";"0";"0";"81";"0";"9781"
"26.03.2024, 06:30";"1711438201";"156";"2";"7";"81";"58";"157";"0";"0";"0";"89";"0";"9781"
"26.03.2024, 06:40";"1711438801";"150";"2";"8";"86";"56";"208";"0";"0";"0";"91";"0";"9781"
"26.03.2024, 06:50";"1711439401";"134";"3";"10";"89";"53";"183";"0";"0";"0";"94";"0";"9781"
"26.03.2024, 07:00";"1711440001";"144";"3";"7";"92";"53";"154";"0";"0";"0";"95";"0";"9775"
"26.03.2024, 07:10";"1711440601";"141";"4";"11";"93";"53";"223";"0";"0";"0";"96";"0";"9775"
"26.03.2024, 07:20";"1711441201";"152";"6";"11";"95";"53";"280";"0";"0";"0";"110";"0";"9775"
"26.03.2024, 07:30";"1711441802";"146";"6";"14";"97";"53";"589";"8";"0";"0";"106";"0";"9775"
"26.03.2024, 07:40";"1711442402";"147";"5";"13";"100";"53";"459";"7";"0";"0";"114";"0";"9775"
"26.03.2024, 07:50";"1711443001";"142";"6";"13";"102";"52";"683";"10";"0";"0";"112";"0";"9775"
"26.03.2024, 08:00";"1711443601";"146";"5";"13";"104";"51";"388";"4";"0";"0";"109";"0";"9770"
"26.03.2024, 08:10";"1711444201";"144";"6";"15";"104";"52";"255";"0";"0";"0";"107";"0";"9770"
"26.03.2024, 08:20";"1711444801";"143";"6";"14";"105";"52";"238";"0";"0";"0";"111";"0";"9770"
"26.03.2024, 08:30";"1711445401";"151";"7";"12";"106";"52";"238";"0";"0";"0";"113";"0";"9770"
"26.03.2024, 08:40";"1711446001";"152";"5";"12";"107";"51";"173";"0";"0";"0";"112";"0";"9770"
"26.03.2024, 08:50";"1711446601";"143";"6";"14";"108";"51";"157";"0";"0";"0";"111";"0";"9770"
"26.03.2024, 09:00";"1711447201";"148";"6";"13";"108";"52";"151";"0";"0";"0";"113";"0";"9766"
"26.03.2024, 09:10";"1711447801";"155";"5";"10";"109";"53";"155";"0";"0";"0";"117";"0";"9766"
"26.03.2024, 09:20";"1711448401";"152";"6";"11";"110";"54";"142";"0";"0";"0";"117";"0";"9766"
"26.03.2024, 09:30";"1711449001";"147";"6";"11";"111";"54";"130";"0";"0";"0";"118";"0";"9766"
"26.03.2024, 09:40";"1711449601";"141";"6";"13";"111";"54";"141";"0";"0";"0";"115";"0";"9766"
"26.03.2024, 09:50";"1711450201";"152";"6";"13";"111";"54";"140";"0";"0";"0";"114";"0";"9766"
"26.03.2024, 10:00";"1711450801";"151";"7";"12";"112";"55";"133";"0";"0";"0";"121";"0";"9759"
"26.03.2024, 10:10";"1711451401";"142";"6";"13";"113";"55";"157";"0";"0";"0";"124";"0";"9759"
"26.03.2024, 10:20";"1711452001";"149";"5";"9";"117";"56";"297";"0";"0";"0";"138";"0";"9759"
"26.03.2024, 10:30";"1711452602";"149";"5";"13";"119";"56";"449";"8";"0";"0";"134";"0";"9759"
"26.03.2024, 10:40";"1711453201";"155";"6";"13";"122";"55";"501";"10";"0";"0";"140";"0";"9759"
"26.03.2024, 10:50";"1711453801";"142";"5";"10";"125";"56";"436";"6";"0";"0";"143";"0";"9759"
"26.03.2024, 11:00";"1711454401";"141";"6";"11";"127";"55";"611";"10";"0";"0";"143";"0";"9751"
"26.03.2024, 11:10";"1711455001";"148";"7";"15";"130";"55";"750";"10";"0";"0";"147";"0";"9751"
"26.03.2024, 11:20";"1711455601";"152";"6";"13";"130";"55";"537";"8";"0";"0";"138";"0";"9751"
"26.03.2024, 11:30";"1711456201";"153";"7";"13";"131";"55";"396";"4";"0";"0";"149";"0";"9751"
"26.03.2024, 11:40";"1711456801";"160";"6";"11";"134";"55";"715";"10";"0";"0";"164";"0";"9751"
"26.03.2024, 11:50";"1711457401";"155";"6";"15";"136";"54";"929";"10";"0";"0";"162";"0";"9751"
"26.03.2024, 12:00";"1711458001";"149";"7";"16";"137";"54";"961";"10";"0";"0";"150";"0";"9746"
"26.03.2024, 12:10";"1711458601";"154";"5";"11";"140";"53";"871";"10";"0";"0";"153";"0";"9746"
"26.03.2024, 12:20";"1711459201";"132";"5";"16";"142";"54";"1,160";"10";"0";"0";"153";"0";"9746"
"26.03.2024, 12:30";"1711459801";"151";"5";"12";"143";"53";"1,120";"10";"0";"0";"147";"0";"9746"
"26.03.2024, 12:40";"1711460402";"137";"5";"13";"141";"52";"730";"10";"0";"0";"145";"0";"9746"
"26.03.2024, 12:50";"1711461001";"144";"6";"13";"140";"53";"641";"10";"0";"0";"142";"0";"9746"
"26.03.2024, 13:00";"1711461601";"153";"6";"12";"138";"52";"354";"1";"0";"0";"142";"0";"9736"
"26.03.2024, 13:10";"1711462201";"143";"5";"13";"137";"53";"291";"0";"0";"0";"141";"0";"9736"
"26.03.2024, 13:20";"1711462801";"152";"5";"12";"138";"53";"366";"0";"0";"0";"142";"0";"9736"
"26.03.2024, 13:30";"1711463401";"143";"6";"13";"139";"54";"381";"1";"0";"0";"143";"0";"9736"
"26.03.2024, 13:40";"1711464001";"133";"5";"13";"139";"53";"543";"10";"0";"0";"140";"0";"9736"
"26.03.2024, 13:50";"1711464601";"126";"5";"17";"140";"52";"551";"10";"0";"0";"144";"0";"9736"
"26.03.2024, 14:00";"1711465201";"134";"4";"11";"142";"54";"1,172";"10";"0";"0";"146";"0";"9729"
"26.03.2024, 14:10";"1711465801";"145";"5";"12";"143";"52";"1,326";"10";"0";"0";"144";"0";"9729"
"26.03.2024, 14:20";"1711466401";"126";"4";"14";"143";"51";"689";"10";"0";"0";"142";"0";"9729"
"26.03.2024, 14:30";"1711467001";"118";"5";"14";"143";"51";"707";"10";"0";"0";"140";"0";"9729"
"26.03.2024, 14:40";"1711467601";"143";"5";"11";"143";"51";"976";"10";"0";"0";"138";"0";"9729"
"26.03.2024, 14:50";"1711468201";"121";"4";"10";"142";"50";"1,213";"10";"0";"0";"136";"0";"9729"
"26.03.2024, 15:00";"1711468801";"108";"4";"11";"143";"51";"1,408";"10";"0";"0";"137";"0";"9720"
"26.03.2024, 15:10";"1711469401";"127";"4";"8";"144";"51";"1,348";"10";"0";"0";"138";"0";"9720"
"26.03.2024, 15:20";"1711470001";"106";"3";"7";"144";"50";"898";"10";"0";"0";"139";"0";"9720"
"26.03.2024, 15:30";"1711470601";"108";"4";"8";"146";"51";"1,673";"10";"0";"0";"141";"0";"9720"
"26.03.2024, 15:40";"1711471201";"117";"3";"8";"147";"50";"2,153";"10";"0";"0";"140";"0";"9720"
"26.03.2024, 15:50";"1711471801";"122";"2";"7";"147";"50";"1,091";"10";"0";"0";"136";"0";"9720"
"26.03.2024, 16:00";"1711472401";"126";"4";"10";"148";"50";"1,014";"10";"0";"0";"138";"0";"9715"
"26.03.2024, 16:10";"1711473002";"113";"4";"8";"148";"50";"1,147";"10";"0";"0";"139";"0";"9715"
"26.03.2024, 16:20";"1711473601";"116";"3";"7";"148";"50";"753";"9";"0";"0";"137";"0";"9715"
"26.03.2024, 16:30";"1711474201";"121";"3";"7";"147";"50";"371";"4";"0";"0";"130";"0";"9715"
"26.03.2024, 16:40";"1711474801";"117";"2";"7";"146";"51";"189";"0";"0";"0";"132";"0";"9715"
"26.03.2024, 16:50";"1711475401";"104";"3";"6";"144";"52";"76";"0";"0";"0";"128";"0";"9715"
"26.03.2024, 17:00";"1711476001";"78";"1";"5";"141";"53";"17";"0";"0";"0";"122";"0";"9715"
"26.03.2024, 17:10";"1711476601";"78";"1";"4";"138";"54";"10";"0";"0";"0";"113";"0";"9715"
"26.03.2024, 17:20";"1711477201";"90";"1";"5";"137";"54";"10";"0";"0";"0";"126";"0";"9715"
"26.03.2024, 17:30";"1711477801";"97";"3";"6";"136";"54";"10";"0";"0";"0";"124";"0";"9715"
"26.03.2024, 17:40";"1711478401";"90";"3";"5";"135";"54";"10";"0";"0";"0";"123";"0";"9715"
"26.03.2024, 17:50";"1711479001";"97";"3";"7";"135";"53";"10";"0";"0";"0";"125";"0";"9715"
"26.03.2024, 18:00";"1711479601";"111";"3";"8";"135";"51";"9";"0";"0";"0";"124";"0";"9715"
"26.03.2024, 18:10";"1711480201";"113";"4";"8";"135";"49";"9";"0";"0";"0";"127";"0";"9715"
"26.03.2024, 18:20";"1711480801";"114";"5";"10";"135";"48";"9";"0";"0";"0";"124";"0";"9715"
"26.03.2024, 18:30";"1711481401";"112";"5";"11";"135";"48";"9";"0";"0";"0";"124";"0";"9715"
"26.03.2024, 18:40";"1711482001";"110";"5";"10";"134";"47";"9";"0";"0";"0";"123";"0";"9715"
"26.03.2024, 18:50";"1711482601";"109";"5";"9";"132";"47";"9";"0";"0";"0";"123";"0";"9715"
"26.03.2024, 19:00";"1711483201";"107";"5";"9";"131";"48";"9";"0";"1";"0";"117";"0";"9718"
"26.03.2024, 19:10";"1711483801";"115";"4";"8";"130";"48";"9";"0";"1";"0";"117";"0";"9718"
"26.03.2024, 19:20";"1711484401";"117";"4";"9";"129";"49";"9";"0";"4";"0";"118";"0";"9718"
"26.03.2024, 19:30";"1711485001";"144";"4";"8";"125";"53";"9";"0";"3";"0";"102";"0";"9718"
"26.03.2024, 19:40";"1711485601";"147";"3";"9";"123";"53";"9";"0";"3";"0";"111";"0";"9718"
"26.03.2024, 19:50";"1711486201";"137";"4";"10";"121";"54";"9";"0";"3";"0";"105";"0";"9718"
"26.03.2024, 20:00";"1711486801";"137";"4";"11";"119";"55";"9";"0";"8";"0";"108";"0";"9718"
"26.03.2024, 20:10";"1711487401";"153";"5";"10";"118";"57";"8";"0";"0";"0";"106";"0";"9718"
"26.03.2024, 20:20";"1711488001";"162";"4";"9";"117";"56";"8";"0";"0";"0";"108";"0";"9718"
"26.03.2024, 20:30";"1711488601";"153";"4";"9";"117";"57";"8";"0";"0";"0";"106";"0";"9718"
"26.03.2024, 20:40";"1711489201";"149";"5";"10";"117";"58";"9";"0";"1";"0";"105";"0";"9718"
"26.03.2024, 20:50";"1711489801";"151";"5";"8";"115";"61";"9";"0";"2";"0";"89";"0";"9718"
"26.03.2024, 21:00";"1711490401";"138";"4";"11";"114";"62";"9";"0";"2";"0";"86";"0";"9714"
"26.03.2024, 21:10";"1711491001";"122";"4";"9";"114";"60";"9";"0";"10";"0";"92";"0";"9714"
"26.03.2024, 21:20";"1711491601";"129";"5";"9";"114";"60";"9";"0";"8";"0";"97";"0";"9714"
"26.03.2024, 21:30";"1711492201";"133";"4";"10";"114";"60";"9";"0";"0";"0";"98";"0";"9714"
"26.03.2024, 21:40";"1711492802";"142";"4";"9";"114";"59";"9";"0";"0";"0";"100";"0";"9714"
"26.03.2024, 21:50";"1711493401";"152";"4";"9";"114";"59";"8";"0";"0";"0";"99";"0";"9714"
"26.03.2024, 22:00";"1711494001";"141";"4";"9";"114";"58";"9";"0";"0";"0";"101";"0";"9707"
"26.03.2024, 22:10";"1711494601";"142";"3";"7";"113";"59";"9";"0";"0";"0";"96";"0";"9707"
"26.03.2024, 22:20";"1711495201";"156";"3";"7";"110";"60";"8";"0";"0";"0";"92";"0";"9707"
"26.03.2024, 22:30";"1711495801";"164";"3";"6";"110";"60";"8";"0";"0";"0";"94";"0";"9707"
"26.03.2024, 22:40";"1711496401";"157";"3";"6";"108";"61";"8";"0";"0";"0";"92";"0";"9707"
"26.03.2024, 22:50";"1711497001";"165";"3";"5";"108";"60";"8";"0";"0";"0";"92";"0";"9707"
"26.03.2024, 23:00";"1711497601";"162";"3";"7";"108";"61";"8";"0";"0";"0";"94";"0";"9700"
"26.03.2024, 23:10";"1711498201";"171";"3";"6";"106";"61";"8";"0";"0";"0";"92";"0";"9700"
"26.03.2024, 23:20";"1711498801";"170";"3";"5";"104";"62";"8";"0";"0";"0";"90";"0";"9700"
"26.03.2024, 23:30";"1711499401";"159";"3";"5";"103";"64";"8";"0";"0";"0";"87";"0";"9700"
"26.03.2024, 23:40";"1711500001";"163";"2";"3";"99";"69";"8";"0";"0";"0";"81";"0";"9700"
"26.03.2024, 23:50";"1711500601";"177";"2";"4";"96";"68";"8";"0";"0";"0";"85";"0";"9700"
"27.03.2024, 00:00";"1711501201";"146";"2";"5";"96";"71";"9";"0";"0";"0";"83";"0";"9698"
"27.03.2024, 00:10";"1711501801";"142";"2";"5";"94";"71";"9";"0";"0";"0";"83";"0";"9698"
"27.03.2024, 00:20";"1711502401";"177";"2";"6";"98";"65";"8";"0";"0";"0";"91";"0";"9698"
"27.03.2024, 00:30";"1711503002";"153";"3";"8";"99";"65";"9";"0";"0";"0";"88";"0";"9698"
"27.03.2024, 00:40";"1711503601";"167";"3";"7";"103";"62";"8";"0";"0";"0";"94";"0";"9698"
"27.03.2024, 00:50";"1711504201";"164";"3";"6";"103";"62";"8";"0";"0";"0";"92";"0";"9698"
"27.03.2024, 01:00";"1711504801";"159";"3";"7";"104";"63";"8";"0";"0";"0";"92";"0";"9695"
"27.03.2024, 01:10";"1711505401";"159";"3";"6";"103";"64";"8";"0";"0";"0";"91";"0";"9695"
"27.03.2024, 01:20";"1711506001";"164";"2";"7";"102";"61";"8";"0";"0";"0";"90";"0";"9695"
"27.03.2024, 01:30";"1711506601";"156";"3";"7";"103";"61";"8";"0";"0";"0";"92";"0";"9695"
"27.03.2024, 01:40";"1711507201";"163";"4";"8";"103";"61";"8";"0";"0";"0";"92";"0";"9695"
"27.03.2024, 01:50";"1711507801";"159";"3";"7";"104";"60";"8";"0";"0";"0";"94";"0";"9695"
"27.03.2024, 02:00";"1711508401";"155";"4";"9";"105";"59";"8";"0";"0";"0";"96";"0";"9693"
"27.03.2024, 02:10";"1711509001";"146";"4";"9";"107";"59";"9";"0";"0";"0";"97";"0";"9693"
"27.03.2024, 02:20";"1711509601";"155";"4";"9";"106";"60";"8";"0";"0";"0";"93";"0";"9693"
"27.03.2024, 02:30";"1711510201";"172";"3";"7";"104";"61";"8";"0";"0";"0";"91";"0";"9693"
"27.03.2024, 02:40";"1711510801";"168";"3";"6";"102";"63";"8";"0";"0";"0";"88";"0";"9693"
"27.03.2024, 02:50";"1711511402";"173";"2";"5";"100";"64";"8";"0";"0";"0";"85";"0";"9693"
"27.03.2024, 03:00";"1711512001";"173";"2";"5";"100";"64";"8";"0";"0";"0";"85";"0";"9688"
"27.03.2024, 03:10";"1711512601";"171";"2";"5";"97";"66";"8";"0";"0";"0";"82";"0";"9688"
"27.03.2024, 03:20";"1711513201";"173";"2";"5";"97";"66";"8";"0";"0";"0";"85";"0";"9688"
"27.03.2024, 03:30";"1711513801";"175";"3";"5";"96";"67";"8";"0";"0";"0";"85";"0";"9688"
"27.03.2024, 03:40";"1711514401";"175";"3";"4";"96";"67";"8";"0";"0";"0";"82";"0";"9688"
"27.03.2024, 03:50";"1711515001";"172";"2";"4";"96";"66";"8";"0";"0";"0";"84";"0";"9688"
"27.03.2024, 04:00";"1711515601";"164";"2";"5";"95";"70";"8";"0";"0";"0";"85";"0";"9684"
"27.03.2024, 04:10";"1711516201";"183";"3";"5";"94";"70";"8";"0";"0";"0";"84";"0";"9684"
"27.03.2024, 04:20";"1711516801";"182";"3";"6";"95";"69";"8";"0";"0";"0";"89";"0";"9684"
"27.03.2024, 04:30";"1711517401";"178";"3";"5";"95";"71";"8";"0";"0";"0";"88";"0";"9684"
"27.03.2024, 04:40";"1711518001";"178";"3";"5";"96";"69";"8";"0";"0";"0";"90";"0";"9684"
"27.03.2024, 04:50";"1711518601";"160";"2";"4";"98";"68";"8";"0";"0";"0";"93";"0";"9684"
"27.03.2024, 05:00";"1711519201";"158";"2";"4";"99";"72";"13";"0";"0";"0";"93";"0";"9691"
"27.03.2024, 05:10";"1711519801";"172";"2";"4";"99";"71";"14";"0";"0";"0";"94";"0";"9691"
"27.03.2024, 05:20";"1711520401";"172";"3";"4";"100";"70";"13";"0";"0";"0";"96";"0";"9691"
"27.03.2024, 05:30";"1711521001";"172";"2";"4";"101";"69";"20";"0";"0";"0";"97";"0";"9691"
"27.03.2024, 05:40";"1711521601";"178";"3";"5";"102";"69";"16";"0";"0";"0";"98";"0";"9691"
"27.03.2024, 05:50";"1711522201";"177";"4";"6";"104";"69";"19";"0";"0";"0";"101";"0";"9691"
"27.03.2024, 06:00";"1711522801";"176";"4";"6";"105";"70";"32";"0";"0";"0";"103";"0";"9698"
"27.03.2024, 06:10";"1711523401";"180";"3";"8";"107";"69";"43";"0";"0";"0";"106";"0";"9698"
"27.03.2024, 06:20";"1711524001";"172";"1";"4";"108";"69";"40";"0";"0";"0";"106";"0";"9698"
"27.03.2024, 06:30";"1711524601";"179";"4";"9";"108";"71";"38";"0";"0";"0";"107";"0";"9698"
"27.03.2024, 06:40";"1711525201";"191";"4";"8";"109";"71";"55";"0";"0";"0";"107";"0";"9698"
"27.03.2024, 06:50";"1711525802";"183";"4";"7";"109";"71";"60";"0";"0";"0";"110";"0";"9698"
"27.03.2024, 07:00";"1711526401";"181";"3";"7";"110";"72";"78";"0";"0";"0";"111";"0";"9702"
"27.03.2024, 07:10";"1711527001";"193";"3";"7";"109";"71";"61";"0";"0";"0";"110";"0";"9702"
"27.03.2024, 07:20";"1711527601";"192";"4";"8";"110";"72";"81";"0";"0";"0";"113";"0";"9702"
"27.03.2024, 07:30";"1711528201";"187";"4";"7";"110";"72";"88";"0";"0";"0";"110";"0";"9702"
"27.03.2024, 07:40";"1711528801";"196";"5";"10";"109";"70";"93";"0";"0";"0";"112";"0";"9702"
"27.03.2024, 07:50";"1711529401";"193";"6";"10";"109";"71";"115";"0";"0";"0";"113";"0";"9702"
"27.03.2024, 08:00";"1711530001";"194";"5";"10";"109";"70";"126";"0";"0";"0";"114";"0";"9702"
"27.03.2024, 08:10";"1711530601";"200";"4";"9";"109";"70";"113";"0";"0";"0";"117";"0";"9702"
"27.03.2024, 08:20";"1711531201";"216";"5";"11";"111";"69";"169";"0";"0";"0";"121";"0";"9702"
"27.03.2024, 08:30";"1711531801";"209";"5";"11";"112";"70";"310";"0";"0";"0";"122";"0";"9702"
"27.03.2024, 08:40";"1711532401";"218";"6";"11";"112";"70";"195";"0";"0";"0";"115";"0";"9702"
"27.03.2024, 08:50";"1711533001";"223";"7";"12";"111";"71";"99";"0";"0";"0";"116";"0";"9702"
"27.03.2024, 09:00";"1711533601";"228";"7";"13";"110";"71";"97";"0";"0";"0";"113";"0";"9707"
"27.03.2024, 09:10";"1711534201";"227";"7";"12";"111";"72";"170";"0";"0";"0";"121";"0";"9707"
"27.03.2024, 09:20";"1711534801";"225";"5";"12";"111";"72";"131";"0";"0";"0";"116";"0";"9707"
"27.03.2024, 09:30";"1711535401";"246";"6";"11";"109";"73";"107";"0";"0";"0";"106";"0";"9707"
"27.03.2024, 09:40";"1711536001";"223";"5";"10";"107";"73";"52";"0";"0";"0";"108";"0";"9707"
"27.03.2024, 09:50";"1711536601";"239";"7";"14";"106";"73";"71";"0";"0";"0";"105";"0";"9707"
"27.03.2024, 10:00";"1711537201";"233";"6";"13";"105";"74";"78";"0";"0";"0";"104";"0";"9712"
"27.03.2024, 10:10";"1711537801";"228";"8";"17";"103";"75";"71";"0";"0";"0";"105";"0";"9712"
"27.03.2024, 10:20";"1711538401";"237";"7";"13";"103";"77";"92";"0";"0";"0";"104";"0";"9712"
"27.03.2024, 10:30";"1711539001";"232";"7";"12";"101";"77";"85";"0";"0";"0";"104";"0";"9712"
"27.03.2024, 10:40";"1711539601";"216";"7";"13";"99";"80";"97";"0";"0";"0";"100";"0";"9712"
"27.03.2024, 10:50";"1711540201";"218";"5";"12";"98";"81";"114";"0";"1";"0";"91";"0";"9712"
"27.03.2024, 11:00";"1711540801";"223";"5";"13";"96";"83";"112";"0";"5";"0";"93";"0";"9716"
"27.03.2024, 11:10";"1711541401";"248";"3";"8";"96";"84";"134";"0";"10";"0";"93";"0";"9716"
"27.03.2024, 11:20";"1711542001";"251";"4";"8";"94";"84";"99";"0";"10";"0";"88";"0";"9716"
"27.03.2024, 11:30";"1711542601";"227";"5";"11";"93";"83";"57";"0";"10";"0";"85";"0";"9716"
"27.03.2024, 11:40";"1711543201";"205";"5";"11";"92";"83";"63";"0";"10";"0";"85";"0";"9716"
"27.03.2024, 11:50";"1711543801";"208";"5";"9";"92";"82";"106";"0";"10";"0";"89";"0";"9716"
"27.03.2024, 12:00";"1711544401";"220";"5";"9";"91";"82";"124";"0";"10";"0";"86";"0";"9719"
"27.03.2024, 12:10";"1711545001";"215";"3";"8";"91";"82";"112";"0";"10";"0";"89";"0";"9719"
"27.03.2024, 12:20";"1711545601";"216";"5";"8";"92";"82";"113";"0";"10";"0";"89";"0";"9719"
"27.03.2024, 12:30";"1711546201";"200";"5";"9";"91";"79";"97";"0";"10";"0";"91";"0";"9719"
"27.03.2024, 12:40";"1711546801";"224";"6";"11";"91";"76";"65";"0";"0";"0";"90";"0";"9719"
"27.03.2024, 12:50";"1711547401";"222";"6";"12";"91";"77";"70";"0";"0";"0";"91";"0";"9719"
"27.03.2024, 13:00";"1711548001";"216";"5";"9";"92";"78";"98";"0";"0";"0";"96";"0";"9723"
"27.03.2024, 13:10";"1711548601";"211";"3";"8";"93";"77";"113";"0";"0";"0";"100";"0";"9723"
"27.03.2024, 13:20";"1711549201";"216";"3";"7";"95";"74";"103";"0";"0";"0";"100";"0";"9723"
"27.03.2024, 13:30";"1711549801";"198";"3";"6";"97";"73";"103";"0";"0";"0";"105";"0";"9723"
"27.03.2024, 13:40";"1711550401";"155";"3";"7";"98";"70";"148";"0";"0";"0";"103";"0";"9723"
"27.03.2024, 13:50";"1711551001";"108";"2";"7";"99";"69";"121";"0";"0";"0";"103";"0";"9723"
"27.03.2024, 14:00";"1711551601";"177";"3";"7";"99";"71";"112";"0";"0";"0";"101";"0";"9721"
"27.03.2024, 14:10";"1711552201";"176";"3";"7";"99";"71";"92";"0";"0";"0";"99";"0";"9721"
"27.03.2024, 14:20";"1711552801";"175";"3";"6";"99";"69";"93";"0";"0";"0";"99";"0";"9721"
"27.03.2024, 14:30";"1711553401";"172";"3";"6";"99";"69";"97";"0";"0";"0";"97";"0";"9721"
"27.03.2024, 14:40";"1711554001";"171";"3";"6";"99";"70";"51";"0";"0";"0";"99";"0";"9721"
"27.03.2024, 14:50";"1711554601";"163";"3";"7";"100";"70";"49";"0";"0";"0";"98";"0";"9721"
"27.03.2024, 15:00";"1711555201";"178";"4";"8";"100";"68";"40";"0";"0";"0";"98";"0";"9726"
"27.03.2024, 15:10";"1711555801";"165";"3";"7";"100";"69";"31";"0";"0";"0";"97";"0";"9726"
"27.03.2024, 15:20";"1711556401";"154";"3";"8";"100";"70";"26";"0";"0";"0";"95";"0";"9726"
"27.03.2024, 15:30";"1711557001";"157";"3";"8";"99";"70";"23";"0";"0";"0";"94";"0";"9726"
"27.03.2024, 15:40";"1711557601";"158";"3";"8";"99";"70";"30";"0";"0";"0";"93";"0";"9726"
"27.03.2024, 15:50";"1711558201";"144";"4";"7";"98";"71";"31";"0";"0";"0";"93";"0";"9726"
"27.03.2024, 16:00";"1711558801";"143";"4";"8";"98";"71";"19";"0";"0";"0";"92";"0";"9726"
"27.03.2024, 16:10";"1711559401";"147";"3";"8";"97";"71";"13";"0";"0";"0";"92";"0";"9726"
"27.03.2024, 16:20";"1711560001";"141";"2";"6";"97";"72";"13";"0";"0";"0";"90";"0";"9726"
"27.03.2024, 16:30";"1711560601";"155";"3";"7";"96";"72";"15";"0";"0";"0";"89";"0";"9726"
"27.03.2024, 16:40";"1711561201";"150";"3";"8";"96";"73";"16";"0";"0";"0";"88";"0";"9726"
"27.03.2024, 16:50";"1711561801";"146";"2";"5";"96";"72";"38";"0";"0";"0";"90";"0";"9726"
"27.03.2024, 17:00";"1711562401";"132";"2";"7";"96";"72";"143";"0";"0";"0";"88";"0";"9723"
"27.03.2024, 17:10";"1711563001";"145";"1";"5";"96";"72";"11";"0";"0";"0";"87";"0";"9723"
"27.03.2024, 17:20";"1711563601";"137";"2";"6";"95";"72";"9";"0";"0";"0";"86";"0";"9723"
"27.03.2024, 17:30";"1711564201";"139";"1";"6";"94";"73";"9";"0";"0";"0";"85";"0";"9723"
"27.03.2024, 17:40";"1711564801";"128";"1";"7";"94";"72";"9";"0";"0";"0";"85";"0";"9723"
"27.03.2024, 17:50";"1711565401";"129";"2";"5";"94";"72";"9";"0";"0";"0";"85";"0";"9723"
"27.03.2024, 18:00";"1711566001";"140";"2";"5";"94";"73";"9";"0";"0";"0";"84";"0";"9723"
"27.03.2024, 18:10";"1711566601";"156";"1";"5";"93";"74";"8";"0";"0";"0";"82";"0";"9723"
"27.03.2024, 18:20";"1711567201";"159";"2";"5";"92";"74";"9";"0";"0";"0";"84";"0";"9723"
"27.03.2024, 18:30";"1711567801";"156";"3";"6";"92";"74";"8";"0";"0";"0";"85";"0";"9723"
"27.03.2024, 18:40";"1711568401";"148";"3";"6";"92";"74";"9";"0";"0";"0";"83";"0";"9723"
"27.03.2024, 18:50";"1711569001";"149";"3";"8";"92";"74";"9";"0";"0";"0";"84";"0";"9723"